Home > Weather > Le Havre > Past weeks

Flag for France Past Weather in Le Havre, Upper Normandy, France — Yesterday and Last 2 Weeks

Now
55 °F

Low clouds.


Feels Like: 52 °F
Forecast: 54 / 59 °F
Wind: 15 mph from North

Location: La Heve

Current Time: May 30, 2016 at 11:03:18 AM

Latest Report: May 30, 2016 at 10:30 AM


Visibility: N/A

Pressure: 29.92 "Hg

Humidity: 88%

Dew Point: 52 °F

Location of Le HavreLocation

Past Weather in Le Havre — Graph

°F

Le Havre Temperature Yesterday

Maximum temperature yesterday: 59 °F (at 3:30 PM)
Minimum temperature yesterday: 54 °F (at 1:30 AM)
Average temperature yesterday: 56 °F

High & Low Weather Summary for the Past Weeks

 TemperatureHumidityPressure
High72 °F (May 21, 4:00 PM)100% (May 16, 7:00 AM)30.27 "Hg (May 16, 7:00 AM)
Low43 °F (May 25, 5:30 AM)49% (May 26, 2:00 PM)29.68 "Hg (May 18, 1:00 PM)
Average55 °F84%29.97 "Hg
* Reported May 15 10:00 AM — May 30 10:00 AM, Le Havre, Weather by CustomWeather, © 2016

Note: Actual official high and low records may vary slightly from our data, if they occured in-between our weather recording intervals... More about our weather records

Advertising

Le Havre Weather History for the Previous 24 Hours

Scroll right to see more
 ConditionsComfort  
Time TempWeatherWind HumidityBarometerVisibility
10:00 AM
Mon, May 30
55 °FLow clouds.13 mph88%29.92 "HgN/A
9:30 AM54 °FLow clouds.13 mph94%29.92 "HgN/A
9:00 AM54 °FLow clouds.13 mph94%29.92 "Hg6 mi
8:30 AM54 °FLow clouds.13 mph94%29.92 "Hg6 mi
8:00 AM54 °FLow clouds.13 mph94%29.92 "Hg6 mi
7:30 AM54 °FLow clouds.13 mph94%29.89 "Hg5 mi
7:00 AM54 °FLow clouds.13 mph94%29.89 "Hg5 mi
6:30 AM54 °FLow clouds.12 mph94%29.89 "Hg5 mi
6:00 AM54 °FMostly cloudy.12 mph94%29.89 "Hg4 mi
5:30 AM54 °FLow clouds.13 mph94%29.89 "Hg6 mi
5:00 AM54 °FLow clouds.15 mph94%29.89 "Hg6 mi
4:30 AM55 °FLow clouds.14 mph88%29.89 "Hg5 mi
4:00 AM54 °FLow clouds.16 mph94%29.89 "Hg6 mi
3:30 AM55 °FLow clouds.16 mph88%29.89 "Hg6 mi
3:00 AM55 °FMostly cloudy.15 mph94%29.89 "Hg4 mi
2:30 AM55 °FClear.15 mph94%29.89 "Hg5 mi
2:00 AM55 °FPassing clouds.13 mph94%29.89 "Hg6 mi
1:30 AM57 °FPassing clouds.12 mph88%29.89 "HgN/A
1:00 AM57 °FClear.12 mph82%29.89 "Hg10 mi
12:30 AM55 °FClear.10 mph88%29.89 "Hg10 mi
12:00 AM55 °FClear.9 mph88%29.89 "Hg10 mi
11:30 PM
Sun, May 29
55 °FClear.12 mph94%29.89 "Hg10 mi
11:00 PM55 °FPassing clouds.10 mph94%29.89 "HgN/A
10:30 PM55 °FClear.9 mph94%29.89 "Hg4 mi
10:00 PM55 °FClear.10 mph94%29.86 "Hg4 mi
9:30 PM57 °FClear.10 mph88%29.86 "Hg4 mi
9:00 PM57 °FClear.8 mph88%29.86 "Hg4 mi
8:30 PM57 °FClear.8 mph88%29.86 "Hg5 mi
8:00 PM57 °FClear.8 mph88%29.86 "Hg4 mi
7:30 PM59 °FClear.8 mph88%29.86 "Hg4 mi
7:00 PM59 °FClear.8 mph82%29.86 "Hg5 mi
6:30 PM59 °FClear.8 mph82%29.86 "Hg6 mi
6:00 PM59 °FPassing clouds.8 mph82%29.86 "Hg5 mi
5:30 PM57 °FOvercast.8 mph88%29.86 "Hg5 mi
5:00 PM59 °FPartly sunny.8 mph82%29.86 "Hg6 mi
4:30 PM57 °FPassing clouds.10 mph88%29.86 "Hg6 mi
4:00 PM59 °FPartly sunny.13 mph82%29.86 "HgN/A
3:30 PM59 °FOvercast.15 mph82%29.83 "HgN/A
3:00 PM57 °FOvercast.15 mph88%29.83 "HgN/A
2:30 PM57 °FOvercast.17 mph88%29.83 "HgN/A
2:00 PM57 °FLow clouds.14 mph88%29.83 "Hg4 mi
1:30 PM57 °FLow clouds.13 mph88%29.83 "Hg4 mi
1:00 PM57 °FLow clouds.15 mph88%29.83 "Hg5 mi
12:30 PM57 °FLow clouds.13 mph88%29.83 "Hg4 mi
12:00 PM55 °FLow clouds.12 mph94%29.83 "Hg4 mi
11:30 AM55 °FLow clouds.13 mph94%29.83 "Hg4 mi
11:00 AM55 °FLow clouds.12 mph94%29.83 "Hg4 mi
Weather by CustomWeather, © 2016

See weather overviewHow to use our weather pages